This demonstration page uses our WeatherBlox Daily Observations layout. Learn more.

40.92945, -100.16068

Hourly Observations for March 31, 2015

Temp ( °F °C ) Dew Point ( °F °C ) Humidity (%) Winds ( mph kmh ) Pressure ( in mb ) Visibility ( mi km ) Precip ( " mm )
12:15 am 00:15 Clear 40 4.5 24 -4.4 53 53 W 3 6 30.09 1019 10 16.0934 N/A
12:35 am 00:35 Clear 40 4.7 25 -4 54 54 WNW 7 11 30.09 1019 10 16.0934 N/A
12:55 am 00:55 Clear 42 5.3 25 -3.9 52 52 WNW 9 15 30.09 1019 10 16.0934 N/A
1:15 am 01:15 Clear 40 4.6 25 -3.8 55 55 WNW 8 13 30.09 1019 10 16.0934 N/A
1:35 am 01:35 Clear 39 3.8 26 -3.5 59 59 NW 7 11 30.09 1019 10 16.0934 N/A
1:55 am 01:55 Clear 38 3.2 23 -4.9 56 56 NW 6 9 30.12 1020 10 16.0934 N/A
2:15 am 02:15 Clear 38 3.2 25 -3.7 61 61 WNW 5 7 30.12 1020 10 16.0934 N/A
2:35 am 02:35 Clear 38 3.2 25 -4 60 60 WNW 6 9 30.12 1020 10 16.0934 N/A
2:55 am 02:55 Clear 37 2.5 25 -4 63 63 W 6 9 30.12 1020 10 16.0934 N/A
3:15 am 03:15 Clear 36 2.4 24 -4.4 61 61 NW 7 11 30.12 1020 10 16.0934 N/A
3:35 am 03:35 Clear 34 1.3 23 -5.2 62 62 NW 5 7 30.12 1020 10 16.0934 N/A
3:55 am 03:55 Clear 35 1.4 23 -5.1 62 62 NNW 3 6 30.12 1020 10 16.0934 N/A
4:15 am 04:15 Clear 33 0.8 24 -4.6 68 68 NW 3 6 30.09 1019 10 16.0934 N/A
4:35 am 04:35 Clear 33 0.5 24 -4.3 71 71 W 6 9 30.12 1020 10 16.0934 N/A
4:55 am 04:55 Clear 33 0.6 24 -4.5 69 69 WNW 5 7 30.09 1019 10 16.0934 N/A
5:15 am 05:15 Clear 33 0.7 24 -4.2 70 70 W 10 17 30.12 1020 10 16.0934 N/A
5:35 am 05:35 Clear 35 1.5 26 -3.5 70 70 WNW 7 11 30.12 1020 10 16.0934 N/A
5:55 am 05:55 Clear 33 0.7 26 -3.5 74 74 W 8 13 30.12 1020 10 16.0934 N/A
6:15 am 06:15 Clear 33 0.6 26 -3.3 75 75 W 8 13 30.12 1020 10 16.0934 N/A
6:35 am 06:35 Clear 32 0.2 25 -4 74 74 WNW 6 9 30.15 1021 10 16.0934 N/A
6:55 am 06:55 Clear 32 0 25 -4 75 75 WNW 5 7 30.15 1021 10 16.0934 N/A
7:15 am 07:15 Clear 32 -0.2 25 -4.1 75 75 W 5 7 30.15 1021 10 16.0934 N/A
7:35 am 07:35 Sunny 30 -1 23 -4.9 75 75 WNW 5 7 30.15 1021 7 11.26538 N/A
7:55 am 07:55 Sunny 34 0.9 27 -2.9 76 76 WNW 5 7 30.12 1020 10 16.0934 N/A
8:15 am 08:15 Sunny 38 3.2 28 -2.1 69 69 WNW 7 11 30.12 1020 10 16.0934 N/A
8:35 am 08:35 Sunny 42 5.4 30 -1.3 62 62 WNW 5 7 30.09 1019 10 16.0934 N/A
8:55 am 08:55 Sunny 44 6.7 30 -1.2 57 57 WNW 5 7 30.09 1019 10 16.0934 N/A
9:15 am 09:15 Sunny 46 7.5 30 -0.9 56 56 WNW 5 7 30.06 1018 10 16.0934 N/A
9:35 am 09:35 Sunny 49 9.2 31 -0.6 51 51 WNW 3 6 30.06 1018 10 16.0934 N/A
9:55 am 09:55 Sunny 52 11.2 31 -0.6 44 44 WNW 3 6 30.03 1017 10 16.0934 N/A
10:15 am 10:15 Sunny 56 13.2 31 -0.3 40 40 SSE 5 7 30.03 1017 10 16.0934 N/A
10:35 am 10:35 Sunny 59 14.9 32 -0.2 36 36 SE 6 9 30 1016 10 16.0934 N/A
10:55 am 10:55 Sunny 62 16.7 32 0.1 33 33 SSE 7 11 29.97 1015 10 16.0934 N/A
11:15 am 11:15 Sunny 64 17.5 32 0 31 31 SSE 8 13 29.97 1015 10 16.0934 N/A
11:35 am 11:35 Sunny 67 19.5 32 0 27 27 S 8 13 29.97 1015 10 16.0934 N/A
11:55 am 11:55 Sunny 69 20.4 31 -0.4 25 25 S 10 17 29.97 1015 10 16.0934 N/A
12:15 pm 12:15 Sunny 70 21.1 31 -0.7 23 23 S 9 15 29.94 1014 10 16.0934 N/A
12:35 pm 12:35 Sunny 72 22 31 -0.7 22 22 S 13 20 29.91 1013 10 16.0934 N/A
12:55 pm 12:55 Sunny 72 22.4 30 -1.1 21 21 S 13 20 29.91 1013 10 16.0934 N/A
1:15 pm 13:15 Sunny 72 22.3 29 -1.7 20 20 S 13 20 29.91 1013 10 16.0934 N/A
1:35 pm 13:35 Sunny 73 23 29 -1.5 20 20 SSE 9 15 29.88 1012 10 16.0934 N/A
1:55 pm 13:55 Sunny 74 23.5 30 -1.3 19 19 S 15 24 29.85 1011 10 16.0934 N/A
2:15 pm 14:15 Sunny 75 24 29 -1.6 18 18 S 13 20 29.85 1011 10 16.0934 N/A
2:35 pm 14:35 Sunny 76 24.5 29 -1.7 18 18 SSW 16 26 29.83 1010 10 16.0934 N/A
2:55 pm 14:55 Sunny 76 24.7 28 -2.1 17 17 S 9 15 29.8 1009 10 16.0934 N/A
3:15 pm 15:15 Sunny 77 25 28 -2.2 16 16 S 15 24 29.8 1009 10 16.0934 N/A
3:35 pm 15:35 Sunny 78 25.5 27 -2.7 15 15 SSW 13 20 29.77 1008 10 16.0934 N/A
3:55 pm 15:55 Sunny 79 25.9 27 -2.8 15 15 SSW 13 20 29.74 1007 10 16.0934 N/A
4:15 pm 16:15 Sunny 79 26.2 27 -2.9 14 14 SSW 14 22 29.74 1007 10 16.0934 N/A
4:35 pm 16:35 Sunny 79 26.1 26 -3.2 14 14 SSW 18 30 29.74 1007 10 16.0934 N/A
4:55 pm 16:55 Sunny 79 26 26 -3.2 14 14 SSW 16 26 29.71 1006 10 16.0934 N/A
5:15 pm 17:15 Sunny 79 26.3 26 -3.2 14 14 SSW 16 26 29.71 1006 10 16.0934 N/A
5:35 pm 17:35 Sunny 79 26.1 25 -3.7 14 14 SSW 13 20 29.68 1005 10 16.0934 N/A
5:55 pm 17:55 Sunny 79 26.1 26 -3.6 14 14 S 17 28 29.68 1005 10 16.0934 N/A
6:15 pm 18:15 Sunny 79 26 26 -3.3 14 14 S 13 20 29.68 1005 10 16.0934 N/A
6:35 pm 18:35 Sunny 78 25.8 25 -3.8 14 14 S 14 22 29.68 1005 10 16.0934 N/A
7:15 pm 19:15 Sunny 76 24.5 26 -3.4 15 15 S 14 22 29.71 1006 10 16.0934 N/A
7:35 pm 19:35 Sunny 74 23.4 26 -3.3 17 17 SSE 14 22 29.68 1005 10 16.0934 N/A
7:55 pm 19:55 Sunny 71 21.9 26 -3.5 18 18 SSE 12 19 29.68 1005 10 16.0934 N/A
8:15 pm 20:15 Clear 67 19.6 26 -3.5 21 21 SSE 10 17 29.71 1006 10 16.0934 N/A
8:35 pm 20:35 Clear 64 18 26 -3.2 24 24 SSE 10 17 29.71 1006 10 16.0934 N/A
8:55 pm 20:55 Clear 62 16.9 26 -3.3 25 25 SSE 10 17 29.74 1007 10 16.0934 N/A
9:15 pm 21:15 Clear 62 16.6 27 -3 26 26 SSE 12 19 29.74 1007 10 16.0934 N/A
9:35 pm 21:35 Clear 62 16.5 27 -3 26 26 SSE 12 19 29.74 1007 10 16.0934 N/A
9:55 pm 21:55 Clear 61 16.2 27 -2.7 27 27 SSE 10 17 29.74 1007 10 16.0934 N/A
10:15 pm 22:15 Clear 61 16 28 -2.5 28 28 SSE 12 19 29.74 1007 10 16.0934 N/A
10:35 pm 22:35 Clear 61 16.2 28 -2.1 29 29 SSE 13 20 29.74 1007 10 16.0934 N/A
10:55 pm 22:55 Clear 61 15.9 28 -2 29 29 SSE 14 22 29.74 1007 10 16.0934 N/A
11:15 pm 23:15 Clear 62 16.5 29 -1.7 29 29 SSE 15 24 29.74 1007 10 16.0934 N/A
11:35 pm 23:35 Clear 63 17.4 30 -1.3 28 28 SSE 18 30 29.74 1007 10 16.0934 N/A
11:55 pm 23:55 Clear 63 17.3 30 -1.2 29 29 SSE 16 26 29.74 1007 10 16.0934 N/A

Powered by AerisWeather